Regional Weather Roundup
Issued by NWS Columbia, SC

Home | Current Version | Previous Version | Text Only | Print | Product List | Glossary On
Versions: 1 2 3 4 5 6 7 8 9 10 11 12 13 14 15 16 17 18 19 20 21 22 23 24 25 26 27
000
ASUS42 KCAE 231710
RWRCAE
REGIONAL WEATHER ROUNDUP
NATIONAL WEATHER SERVICE COLUMBIA SC
100 PM EDT WED APR 23 2014

NOTE: "FAIR" INDICATES FEW OR NO CLOUDS BELOW 12,000 FEET WITH NO
SIGNIFICANT WEATHER AND/OR OBSTRUCTIONS TO VISIBILITY.

NOT ALL STATIONS ARE QUALITY CONTROLLED BY THE NATIONAL
WEATHER SERVICE. USE DATA WITH CAUTION...ESPECIALLY
DEWPOINT OBSERVATIONS.

SCZ001>056-GAZ040-063>065-077-231800-
...UPSTATE SOUTH CAROLINA...

CITY           SKY/WX    TMP DP  RH WIND       PRES   REMARKS
ANDERSON       SUNNY     73  44  35 VRB3      29.91F
LIBERTY        FAIR      73  32  22 CALM      29.91F
SPARTANBURG    FAIR      73  30  20 NW9       29.90F
CLEMSON        SUNNY     76  37  24 CALM      29.92F
GREENVILLE     SUNNY     75  34  22 NW9       29.91F
GREENWOOD      SUNNY     76  48  37 N6        29.91F
GREER          SUNNY     73  33  23 VRB6      29.90F
ROCK HILL      SUNNY     71  33  24 VRB3      29.89F
CHESTER        FAIR      73  37  27 N10       29.90F
LAURENS        FAIR      75  30  19 N6        29.91S


...CENTRAL SOUTH CAROLINA...

CITY           SKY/WX    TMP DP  RH WIND       PRES   REMARKS
COLUMBIA APT   MOSUNNY   76  47  35 NW12      29.87F
COLUMBIA OWENS SUNNY     77  44  30 W9        29.88F
DARLINGTON     SUNNY     75  41  29 N9G16     29.86F
FLORENCE       SUNNY     76  46  34 NW10      29.84F
MCENTIRE ANGB  MOSUNNY   77  48  35 NW13      29.87F
ORANGEBURG     SUNNY     77  50  38 NW13      29.87F
SUMTER SHAW    SUNNY     76  47  35 NW8       29.84F
NEWBERRY       FAIR      73  45  35 W8        29.92S
AIKEN          FAIR      77  55  47 W8        29.92S
BARNWELL       FAIR      79  52  38 W6        29.87F
MANNING        FAIR      79  55  44 NW7       29.86F
CAMDEN         FAIR      75  48  38 NW9G17    29.88F
LANCASTER      FAIR      72  39  30 NW8       29.89S
WINNSBORO      FAIR      73  36  25 NW12G17   29.89S


...EASTERN AND COASTAL SOUTH CAROLINA...

CITY           SKY/WX    TMP DP  RH WIND       PRES   REMARKS
MYRTLE BEACH   SUNNY     75  48  38 W14       29.83F
N MYRTLE BCH   SUNNY     77  48  35 W8        29.82F
CONWAY         FAIR      75  50  41 N7        29.83F
MARION         FAIR      73  41  31 W12       29.85S
HARTSVILLE     FAIR      77  37  24 N10G16    29.86F
FLORENCE       SUNNY     76  46  34 NW10      29.84F
DARLINGTON     SUNNY     75  41  29 N9G16     29.86F
CHARLESTON APT MOSUNNY   81  58  45 VRB3      29.85F
MOUNT PLEASANT FAIR      79  57  47 NW10      29.86F
WALTERBORO     SUNNY     79  59  50 W8        29.87F
BEAUFORT       SUNNY     79  58  48 N7        29.87F


...EASTERN GEORGIA...

CITY           SKY/WX    TMP DP  RH WIND       PRES   REMARKS
AUGUSTA BUSH F SUNNY     77  54  44 N5        29.88F
AUGUSTA DANIEL SUNNY     76  53  44 VRB3      29.90S
THOMSON        SUNNY     76  50  41 NW6       29.94S
WASHINGTON     FAIR      77  43  29 NW7       29.90F
CLAXTON        FAIR      79  63  57 NW10      29.90F
SYLVANIA       SUNNY     79  51  37 W9        29.89F
STATESBORO     SUNNY     79  47  33 W13       29.89F
SAVANNAH       SUNNY     79  60  52 W7        29.88F


...SOUTHERN NORTH CAROLINA...

CITY           SKY/WX    TMP DP  RH WIND       PRES   REMARKS
CHARLOTTE      SUNNY     72  27  18 NW10G16   29.89F
MONROE         SUNNY     72  35  25 W8G18     29.88F
WADESBORO      SUNNY     73  28  19 NW12G18   29.87F
ROCKINGHAM       N/A     72  36  26 W12G18    29.87S
RUTHERFORDTON  SUNNY     69  31  24 W5        29.92F
ASHEVILLE      SUNNY     62  28  27 N14G21    29.97F

$$



USA.gov is the U.S. government's official web portal to all federal, state and local government web resources and services.